This is the latest recevied weather packets stored in our database for station/object HB9TJM-8. If no packets are shown the sender has not sent any weather packets the latest 10 day(s).
| Time | Temp. | Humidity | Pressure | Rain* | Wind** | Luminosity | Snow |
|---|---|---|---|---|---|---|---|
| 1777880729 | 12.22° C | 76% | 1015.6 hPa | 0 mm | - | 185 W/m² | - |
| 1777880422 | 11.67° C | 75% | 1015.9 hPa | 0 mm | - | 231 W/m² | - |
| 1777880115 | 11.67° C | 81% | 1015.7 hPa | 0 mm | - | 191 W/m² | - |
| 1777879808 | 11.67° C | 78% | 1015.9 hPa | 0 mm | - | 144 W/m² | - |
| 1777879501 | 11.11° C | 75% | 1015.2 hPa | 0 mm | - | 133 W/m² | - |
| 1777879192 | 11.11° C | 79% | 1015.6 hPa | 0 mm | - | 142 W/m² | - |
| 1777878885 | 11.11° C | 81% | 1015.6 hPa | 0 mm | - | 156 W/m² | - |
| 1777878578 | 11.11° C | 79% | 1015.4 hPa | 0 mm | - | 196 W/m² | - |
| 1777878271 | 11.67° C | 77% | 1015.7 hPa | 0 mm | - | 216 W/m² | - |
| 1777877963 | 11.67° C | 79% | 1015.4 hPa | 0 mm | - | 234 W/m² | - |
| 1777877656 | 11.11° C | 78% | 1015.4 hPa | 0 mm | - | 245 W/m² | - |
| 1777877349 | 10.56° C | 84% | 1015.6 hPa | 0 mm | - | 177 W/m² | - |
| 1777877042 | 10.56° C | 83% | 1015.5 hPa | 0 mm | - | 179 W/m² | - |
| 1777876734 | 10.56° C | 83% | 1015 hPa | 0 mm | - | 166 W/m² | - |
| 1777876427 | 10° C | 85% | 1014.9 hPa | 0 mm | - | 132 W/m² | - |
| 1777876119 | 10° C | 84% | 1015.2 hPa | 0 mm | - | 111 W/m² | - |
| 1777875812 | 10° C | 85% | 1015.8 hPa | 0 mm | - | 120 W/m² | - |
| 1777875504 | 9.44° C | 87% | 1015.4 hPa | 0 mm | - | 116 W/m² | - |
| 1777875197 | 9.44° C | 86% | 1015.5 hPa | 0 mm | - | 104 W/m² | - |
| 1777874889 | 9.44° C | 88% | 1015.4 hPa | 0 mm | - | 84 W/m² | - |
| 1777874582 | 9.44° C | 87% | 1015.3 hPa | 0 mm | - | 60 W/m² | - |
| 1777874275 | 9.44° C | 88% | 1015.1 hPa | 0 mm | - | 45 W/m² | - |
| 1777873967 | 9.44° C | 85% | 1015.4 hPa | 0 mm | - | 44 W/m² | - |
| 1777873661 | 9.44° C | 85% | 1015.5 hPa | 0 mm | - | 38 W/m² | - |
| 1777873352 | 8.89° C | 87% | 1015 hPa | 0 mm | - | 33 W/m² | - |
* Rain latest hour (hover to see other rain measurements)
** Current wind speed in m/s (hover to see current wind gust speed)